ZHONGXING-2C

Last updated on Wed Sep 09 2026 00:03:01 GMT+0000 (Coordinated Universal Time)

1 41021U 15063A 26251.59917470 -.00000345 00000+0 00000+0 0 9992 2 41021 0.4822 86.9231 0009735 115.2348 104.6288 1.00274250 39814
UTC large
Height (km)
Speed (km/s)
/
Latitude / Longitude
Inclination (degrees)
Orbital Period (minutes)
Azimuth
Elevation
Range (km)
Doppler Factor

Next 0 passes for location: London (51.5072 / 0.1276)

No passes found over London.
ZHONGXING-2C